Simultaneous Nadir Overpasses (SNOs) Predictions

Prediction of SNOs between LANDSAT-8 and NOAA-19 Satellite Orbit:

Table of predicted SNOs for the next 14.0 days since TLE Epoch: 3/3/2017
Index Date (LANDSAT-8) Time (LANDSAT-8) Lat,Lon (LANDSAT-8) SZA (LANDSAT-8 ) Date (NOAA-19) Time (NOAA-19) Lat,Lon (NOAA-19) SZA (NOAA-19 ) Distance(km) Time Diff (sec)
1 03/05/2017 11:40:41 75.85, 12.47 81.69 03/05/2017 11:40:18 75.84, 12.35 81.68 3.42 23
2 03/05/2017 12:30:10 -75.77, 179.88 98.41 03/05/2017 12:31:12 -75.77, 179.87 98.40 0.47 62
3 03/07/2017 17:14:25 -75.84, 109.01 99.19 03/07/2017 17:14:05 -75.82, 109.04 99.21 1.93 20
4 03/07/2017 18:03:55 75.62, -83.99 80.57 03/07/2017 18:05:06 75.58, -82.90 80.56 30.46 71
5 03/09/2017 22:48:07 75.83,-154.45 79.94 03/09/2017 22:48:04 75.85,-154.48 79.96 2.44 3
6 03/09/2017 23:37:42 -75.46, 12.12 100.47 03/09/2017 23:38:50 -75.43, 14.19 100.44 57.89 68
7 03/12/2017 03:32:14 76.28, 135.88 79.56 03/12/2017 03:31:07 76.34, 133.05 79.56 74.77 67
8 03/12/2017 04:21:50 -75.86, -57.77 100.90 03/12/2017 04:21:51 -75.85, -57.89 100.92 3.37 1
9 03/14/2017 09:06:00 -76.17,-127.92 101.44 03/14/2017 09:04:51 -76.22,-129.88 101.44 52.59 69
10 03/14/2017 09:55:32 75.84, 38.74 78.20 03/14/2017 09:55:49 75.83, 38.76 78.19 1.75 17
11 03/16/2017 14:39:47 75.90, -32.18 77.39 03/16/2017 14:38:42 75.89, -32.11 77.39 1.97 65
12 03/16/2017 15:29:16 -75.83, 135.26 102.69 03/16/2017 15:29:36 -75.85, 135.30 102.67 2.68 20
